Location: Artiguedieu
(43.5000°N, 0.5454°E)
Time: 19:50:59
(UTC+00:00)

Vanguard 1 - Pass Details

Date: 31 July 2021
Orbit: 652 x 3831 km, 34.3° (Epoch: 19 September)

Event Time Altitude Azimuth Distance (km) Brightness Sun altitude
Rises 10:29:41 0° 225° (SW) 3,012 12.6 57.8°
Reaches altitude 10° 10:32:06 10° 210° (SSW) 2,218 12.1 58.1°
Maximum altitude 10:36:10 25° 155° (SSE) 1,705 12.4 58.6°
Drops below altitude 10° 10:41:45 10° 102° (ESE) 3,134 13.2 59.3°
Sets 10:45:56 0° 91° (E) 4,612 13.8 59.7°
